Regional Weather Roundup
Issued by NWS

Home | Current Version | Previous Version | Text Only | Print | Product List | Glossary Off
Versions: 1 2 3 4 5 6 7 8 9 10 11 12 13 14 15 16 17 18 19 20 21 22 23 24 25 26 27 28 29 30 31 32 33 34 35 36 37 38 39 40 41 42 43 44 45 46 47 48 49 50

000
ASUS45 KCYS 260810
RWRWY

WYOMING REGIONAL WEATHER ROUNDUP
NATIONAL WEATHER SERVICE CHEYENNE WY
200 AM MDT TUE MAY 26 2015

NOTE:  "FAIR" INDICATES FEW OR NO CLOUDS BELOW 12,000 FEET
WITH NO SIGNIFICANT WEATHER AND/OR OBSTRUCTIONS TO VISIBILITY.

WYZ001-260900-
YELLOWSTONE NATIONAL PARK

CITY           SKY/WX    TMP DP  RH WIND       PRES   REMARKS
LK YELLOWSTONE   N/A     34  33  96 CALM      30.09F
W YELLOWSTONE  NOT AVBL

$$
WYZ002>013-054>058-071-098>099-260900-
NORTHERN WYOMING

CITY           SKY/WX    TMP DP  RH WIND       PRES   REMARKS
JACKSON        FAIR      43  41  93 CALM      30.05S
CODY           FAIR      48  43  81 SW5       29.93F
GREYBULL       FAIR      51  46  83 E5        29.91F
WORLAND        FAIR      49  45  86 CALM      29.92F
SHERIDAN       FAIR      41  39  93 SW3       29.92F
BUFFALO        FAIR      44  40  85 W8        29.96S
GILLETTE       FAIR      45  43  93 S9        29.95S
HULETT         CLOUDY    45  45 100 S3        29.97S
NEWCASTLE      CLOUDY    52  50  93 SE7       29.97S

$$
WYZ014>020-022>026-101>103-260900-
CENTRAL WYOMING

CITY           SKY/WX    TMP DP  RH WIND       PRES   REMARKS
BIG PINEY      FAIR      38  35  89 N8        30.07R WCI  32
PINEDALE       FAIR      36  36 100 CALM      30.07S
DUBOIS         FAIR      41  36  81 NW9       30.04F
LANDER         FAIR      46  38  73 W8        29.97S
RIVERTON       FAIR      47  43  86 N5        29.98F
CASPER         FAIR      43  42  97 W3        29.99S FOG
DOUGLAS        FAIR      43  42  97 CALM      29.98F

$$
WYZ021-027>030-104>119-260900-
SOUTHERN WYOMING

CITY           SKY/WX    TMP DP  RH WIND       PRES   REMARKS
EVANSTON       FAIR      43  37  79 S5        30.08F
KEMMERER       FAIR      37  36  93 NW6       30.08F WCI  33
FORT BRIDGER   SUNNY     43  39  87 W8        30.10F
ROCK SPRINGS   FAIR      43  39  86 W13       30.06R
DIXON          CLOUDY    41  39  91 NE3       30.10S
RAWLINS        FAIR      39  36  89 CALM      30.05F
SARATOGA       FAIR      39  37  93 MISG      30.07F
LARAMIE        FAIR      36  35  96 SE6       30.06S WCI  31
CHEYENNE       FAIR      42  38  85 NW5       30.02F
TORRINGTON     FOG       46  46 100 W5        29.96S VSB 1/4
PINE BLUFFS    PTSUNNY   43  43 100 CALM      30.00S

$$


USA.gov is the U.S. government's official web portal to all federal, state and local government web resources and services.